Regional Weather Roundup
Issued by NWS

Home | Current Version | Previous Version | Graphics & Text | Print | Product List | Glossary Off
Versions: 1 2 3 4 5 6 7 8 9 10 11 12 13 14 15 16 17 18 19 20 21 22 23 24 25 26 27 28 29 30 31 32 33 34 35 36 37 38 39 40 41 42 43 44 45 46 47 48 49 50

000
ASUS43 KIND 071609
RWRIN

WEATHER ROUNDUP FOR INDIANA
NATIONAL WEATHER SERVICE INDIANAPOLIS IN
1100 AM EST WED DEC 07 2016

NOTE: "FAIR" INDICATES FEW OR NO CLOUDS BELOW 12,000 FEET WITH NO
SIGNIFICANT WEATHER AND/OR OBSTRUCTIONS TO VISIBILITY.

* - STATION DOES NOT REPORT WEATHER SUCH AS PRECIPITATION OR FOG.

+ - STATION NOT QUALITY CONTROLLED BY THE NATIONAL WEATHER SERVICE.
    USE DATA WITH CAUTION...ESPECIALLY DEWPOINT AND RELATIVE
    HUMIDITY OBSERVATIONS.

INZ001>003-010>013-019-020-071700-
NORTHWEST INDIANA

CITY           SKY/WX    TMP DP  RH WIND       PRES   REMARKS
GARY /AIRPORT/ PTSUNNY   30  19  64 W12G23    30.13R WCI  21
KNOX *+        MOSUNNY   30   5  34 W16       30.12R WCI  19
LA PORTE +     SUNNY     32  25  74 SW10      30.11R WCI  24
MICHIGAN CITY+ MOSUNNY   32  23  69 W14       30.11R WCI  22
MONTICELLO +   MOSUNNY   30  19  62 SW14      30.15R WCI  20
RENSSELAER +     N/A     32  27  80 SW9       30.16R WCI  24
VALPARAISO     PTSUNNY   29  19  66 W13       30.12R WCI  19

$$

LMZ046-743>745-071700-
SOUTHERN LAKE MICHIGAN

STATION/POSITION TIME  TEMP    WIND        PRES    WAVE
                       AIR SEA DIR/SP/G            HT
                 (UTC) (F)     (DEG/KT/KT) (MB)    (FT)
BURNS HARBOR     1540   30     240/ 15/ 21 1020.0R
MICHIGAN CITY    1540   30     230/ 21/ 25   N/A

$$

INZ004-005-014>016-021>024-071700-
NORTH CENTRAL INDIANA

CITY           SKY/WX    TMP DP  RH WIND       PRES   REMARKS
ELKHART        MOSUNNY   32  21  64 W9        30.08  WCI  24
GOSHEN           N/A    N/A N/A N/A MISG      30.08R
LOGANSPORT +   CLOUDY    32  23  69 SW16      30.15R WCI  21
PERU/GRISSOM   PTSUNNY   31  22  69 W16       30.13R WCI  20
ROCHESTER +    MOSUNNY   32  27  80 SW13G18   30.13R WCI  22
SOUTH BEND     MOSUNNY   30  21  69 W13G18    30.10R WCI  20
WARSAW +       MOSUNNY   32  19  59 W12       30.10R WCI  23

$$

INZ006>009-017-018-025>027-071700-
NORTHEAST INDIANA

CITY           SKY/WX    TMP DP  RH WIND       PRES   REMARKS
ANGOLA *+      SUNNY     30  23  74 W12       30.05S WCI  21
AUBURN +       MOSUNNY   32  21  64 SW7       30.09R WCI  26
FORT WAYNE     PTSUNNY   32  23  69 SW15      30.11R WCI  22
HUNTINGTON +   MOSUNNY   32  21  65 SW13G18   30.12R WCI  22
KENDALLVILLE + MOSUNNY   31  21  67 SW12G17   30.07S WCI  21

$$

INZ028-029-035-036-043>045-051>053-071700-
WEST CENTRAL INDIANA

CITY           SKY/WX    TMP DP  RH WIND       PRES   REMARKS
CRAWFORDSVL +  PTSUNNY   32  25  76 SW10      30.17R WCI  23
GREENCASTLE +  PTSUNNY   32  25  74 CALM      30.18S
LAFAYETTE      CLOUDY    30  21  69 W9        30.17R WCI  22
TERRE HAUTE    PTSUNNY   32  21  64 SW8       30.20R WCI  25

$$

INZ030>032-037>040-046>048-054>057-064-065-071700-
CENTRAL INDIANA

CITY           SKY/WX    TMP DP  RH WIND       PRES   REMARKS
CP ATTERBURY + MOSUNNY   34  25  69 S6        30.18F WCI  29
COLUMBUS       SUNNY     32  27  80 SW7       30.20S WCI  26
FRANKFORT +    SUNNY     34  26  71 W12       30.16R WCI  26
GREENWOOD *+   PTSUNNY   33  24  71 SW5       30.17F WCI  28
INDIANAPOLIS   PTSUNNY   33  22  63 W12       30.17S WCI  24
-EAGLE CREEK   SUNNY     33  21  61 VRB6      30.17R WCI  28
KOKOMO +       PTSUNNY   32  22  66 SW15      30.15R WCI  22
MARION +       MOSUNNY   30  23  74 W13       30.15R WCI  20
MT COMFORT *+  PTSUNNY   32  23  69 SW9       30.16S WCI  24
SHELBYVILLE    MOSUNNY   34  23  64 SW8       30.16F WCI  27
ZIONSVILLE +   MOSUNNY   30  22  70 SW12      30.17R WCI  21

$$

INZ033-034-041-042-049-050-058-059-071700-
EAST CENTRAL INDIANA

CITY           SKY/WX    TMP DP  RH WIND       PRES   REMARKS
MUNCIE         SUNNY     33  21  61 SW10      30.15R WCI  25

$$

INZ060-061-067>069-081>083-085>088-071700-
SOUTHWEST INDIANA

CITY           SKY/WX    TMP DP  RH WIND       PRES   REMARKS
EVANSVILLE     MOSUNNY   39  20  46 N6        30.24S
HUNTINGBURG *+ SUNNY     35  23  61 CALM      30.23S
WASHINGTON +   MOSUNNY   34  21  57 W3        30.22S

$$

INZ062-063-066-070>080-084-089>092-071700-
SOUTH CENTRAL AND SOUTHEAST INDIANA

CITY           SKY/WX    TMP DP  RH WIND       PRES   REMARKS
BLOOMINGTON    PTSUNNY   33  20  58 SW5       30.18F WCI  29
MADISON *+     CLOUDY    36  27  69 CALM      30.22S
NORTH VERNON + SUNNY     34  28  80 W3        30.21R
SEYMOUR +      MOSUNNY   37  25  60 SW5       30.22R

$$




USA.gov is the U.S. government's official web portal to all federal, state and local government web resources and services.